RH
46 28 35 48 38 27 27 51 70 76 89 77 76 99 100 84 87 79 100 100 100 100 100 100 100 100 100 100 100 100 100 100 100 100 100 100 100 100 100 100 93 100 100 98
51 31 30 50 39 30 25 45 62 72 77 79 72 81 89 96 76 79 77 89 100 98 100 100 100 93 100 95 99 100 100 100 80 78 86 99 96 93 98 99 93 86 77 82
55 33 28 53 40 32 24 29 60 51 69 88 70 76 69 81 91 84 94 99 100 74 100 94 100 86 100 100 98 69 83 73 74 72 72 65 68 71 68 72 72 72 70 88
55 39 26 43 42 34 26 26 53 58 68 88 95 79 75 85 88 84 92 100 100 100 72 98 100 96 81 100 94 100 100 98 76 66 64 57 66 63 66 77 87 83 75 62
50 44 30 27 42 41 32 26 37 66 68 85 100 100 95 86 71 89 95 100 100 97 92 90 79 90 90 96 99 99 99 95 90 88 91 86 80 76 67 62 53 58 52 51
46 46 32 33 44 43 33 29 31 61 72 87 83 98 100 100 77 73 95 93 95 97 81 71 67 74 66 64 65 64 58 62 59 54 54 62 72 68 78 72 63 51 48 59
47 44 28 36 50 45 38 33 31 37 73 78 77 91 95 88 84 96 79 92 94 98 84 81 100 92 74 71 66 60 60 61 67 72 69 64 69 61 53 72 73 85 67 85
54 51 28 29 51 49 42 36 34 32 47 73 81 82 78 74 82 87 80 81 80 76 98 88 70 71 83 78 85 83 77 75 70 75 67 57 60 76 98 100 100 100 100 100
69 59 33 36 57 51 45 42 36 33 35 57 82 84 80 77 85 87 91 90 89 84 82 78 67 74 77 87 99 97 79 58 53 62 70 78 100 100 100 100 100 100 87 76
68 52 34 54 64 51 44 42 35 34 37 42 77 90 76 69 64 66 87 89 95 84 90 80 76 66 66 74 76 72 59 57 59 69 82 93 99 94 100 100 98 99 100 100
66 50 38 73 79 57 44 43 36 33 37 39 64 78 78 60 63 74 79 93 98 100 95 83 86 73 68 71 56 45 57 79 93 70 69 78 74 82 92 100 100 100 100 100
72 46 55 94 86 64 45 38 37 38 37 46 39 65 78 74 68 73 80 91 91 91 88 96 93 97 98 86 59 38 61 69 69 73 76 74 79 76 100 100 100 100 100 100
100 46 90 100 86 69 51 39 39 30 33 60 46 43 51 54 72 78 76 74 82 81 84 85 91 100 100 92 57 72 78 65 79 80 72 73 99 100 100 100 100 98 93 91
80 52 69 100 98 75 50 47 37 32 36 38 60 61 43 30 39 61 88 86 79 81 75 76 87 97 100 78 92 100 84 78 78 78 77 90 91 99 99 100 97 90 80 72
100 79 63 100 100 81 56 46 39 43 38 36 48 60 56 48 34 36 54 59 56 54 51 46 58 91 99 98 93 74 74 76 83 84 84 78 82 90 94 87 82 79 70 67
100 70 74 100 99 80 72 37 41 39 38 44 41 52 55 54 56 43 43 45 59 65 68 74 80 81 100 90 68 59 59 81 89 92 92 92 93 89 84 81 80 76 77 95
100 74 98 100 89 81 83 49 41 43 46 46 40 47 49 47 39 44 64 78 97 100 98 93 88 67 61 68 43 40 62 80 92 96 97 99 97 92 88 82 80 95 100 100
100 62 100 100 92 100 70 53 39 46 47 50 41 40 49 42 35 29 33 50 58 68 83 87 73 58 46 40 42 47 47 65 90 97 95 89 86 90 92 92 100 100 97 93
91 86 100 100 100 100 93 49 43 47 49 38 61 56 58 60 58 56 46 51 56 59 64 66 68 67 65 60 56 59 65 70 78 88 93 96 100 98 99 100 100 95 90 97
100 100 100 100 100 100 73 54 37 56 60 49 43 49 56 58 65 72 63 61 61 65 68 71 83 80 66 63 73 87 90 93 97 98 97 93 94 98 100 90 84 91 94 92
100 100 97 100 100 100 83 55 41 54 63 51 53 52 44 46 59 70 84 84 85 96 100 86 74 77 76 81 87 86 88 94 93 92 93 94 88 79 84 90 86 87 85 76
100 100 100 100 98 100 74 48 50 50 74 71 66 56 55 53 48 61 76 85 100 99 80 56 51 52 53 59 62 67 74 81 86 87 82 79 82 84 85 86 83 79 84 96
96 90 100 95 90 99 90 59 50 53 72 92 77 67 73 65 56 49 59 80 91 85 78 74 74 74 72 74 71 66 66 72 81 88 88 84 84 92 91 83 86 94 93 85
100 100 100 94 96 97 85 89 57 54 84 87 67 72 82 79 68 58 68 68 80 99 96 90 88 86 86 85 85 85 84 82 87 95 96 89 77 74 83 85 84 81 81 82
100 100 100 72 99 92 90 75 74 88 100 75 79 72 80 82 72 58 60 66 75 87 90 94 94 90 88 88 88 91 94 97 87 78 75 74 79 88 90 90 85 88 93 86
100 100 89 99 98 70 78 80 93 100 97 83 93 79 76 73 76 66 69 75 72 67 77 84 92 93 90 87 85 82 80 74 66 67 69 72 79 77 82 89 90 95 92 91
Wind_Speed
64 52 42 37 45 45 30 29 13 9 8 8 11 19 13 15 16 12 15 11 13 14 22 24 29 21 20 30 35 32 34 42 38 48 53 55 57 54 61 57 64 57 59 63
59 49 41 33 41 42 31 25 17 11 8 6 12 16 19 18 16 17 16 14 13 17 20 26 28 30 20 26 35 39 42 43 46 51 60 57 51 57 61 63 62 61 61 64
57 45 40 31 36 38 34 25 22 14 8 10 7 8 13 19 18 19 17 18 16 20 20 31 36 34 36 29 30 38 44 45 47 48 47 50 60 64 64 64 61 64 65 60
50 38 37 31 33 35 35 29 22 22 14 13 12 14 12 14 18 23 23 22 15 17 23 24 25 30 36 33 33 32 32 41 45 45 48 50 53 53 54 57 59 60 59 57
45 35 32 35 29 34 32 30 24 21 18 14 17 19 19 18 17 21 23 27 21 19 19 23 33 33 31 30 32 33 34 35 33 34 36 38 43 44 47 47 51 53 54 53
42 34 31 32 27 31 31 28 23 21 20 20 19 17 19 23 19 17 22 25 27 24 22 25 26 27 28 30 35 37 39 37 37 38 39 39 41 42 44 47 50 51 48 48
39 35 31 29 27 29 32 27 28 23 21 24 23 23 23 22 26 26 22 25 27 27 26 27 28 26 28 29 32 34 35 35 36 36 38 39 41 43 42 41 41 41 45 45
41 36 31 30 27 28 28 30 30 23 25 24 24 29 25 21 21 23 26 27 24 27 28 29 29 29 30 29 31 34 34 34 36 37 35 37 36 36 36 33 33 39 46 49
44 39 32 29 29 27 28 30 30 25 22 25 25 29 31 30 28 27 25 26 27 28 31 31 31 32 33 31 30 34 35 36 35 35 34 32 31 32 34 37 40 43 49 50
43 38 32 30 31 28 27 29 28 28 24 24 27 31 34 34 31 30 31 30 30 30 31 35 34 34 31 31 34 36 37 35 35 36 36 32 31 29 27 38 46 47 48 54
43 38 34 30 33 29 27 28 28 30 23 24 32 34 35 33 34 32 32 33 34 34 35 36 37 35 34 35 36 38 35 34 37 36 33 32 32 30 34 40 48 50 56 61
44 35 32 32 33 31 27 31 26 28 27 25 30 36 38 33 33 36 38 38 37 38 38 38 38 38 39 40 41 38 34 36 36 37 36 35 38 36 38 45 51 56 60 62
48 34 32 34 37 32 31 33 28 26 25 27 30 35 43 37 35 35 36 38 38 39 39 41 41 41 41 43 41 38 35 37 39 40 40 38 39 42 46 51 57 62 65 68
50 38 35 40 38 33 33 31 30 25 25 27 28 35 41 41 38 39 39 41 40 40 40 41 40 40 42 41 38 37 39 41 41 42 43 43 44 48 51 56 61 65 69 72
53 48 40 41 40 33 33 32 30 26 24 25 27 30 36 33 35 37 41 43 41 42 43 41 35 36 38 39 41 43 43 44 43 47 48 49 51 54 58 62 66 69 73 74
53 50 41 41 41 34 32 35 29 24 26 27 21 27 30 28 30 33 37 36 34 35 33 34 36 37 39 39 40 42 44 47 51 53 54 55 57 60 63 66 70 73 75 77
51 46 44 41 39 33 36 37 34 25 26 26 24 28 26 28 29 31 33 32 34 36 38 40 41 41 40 41 41 43 46 50 53 55 57 60 63 65 67 70 73 76 78 81
56 48 44 40 37 35 42 40 37 28 28 26 29 29 30 32 31 31 31 33 34 36 39 40 42 44 45 45 46 46 47 51 55 58 61 64 66 68 71 74 76 79 82 85
58 47 45 41 39 39 39 45 39 30 31 19 24 23 31 34 35 36 35 35 35 37 40 40 42 43 45 47 48 48 49 50 54 57 61 65 68 71 73 76 80 83 85 87
52 48 46 41 37 38 46 45 40 29 35 23 22 24 28 34 37 37 35 34 34 34 34 33 34 37 40 42 45 48 51 54 57 61 64 68 71 73 76 79 82 83 85 88
54 49 45 45 38 41 44 44 39 32 37 31 28 29 28 28 34 38 37 37 38 39 40 42 42 42 41 42 44 47 51 56 59 62 65 68 70 73 76 79 81 83 87 90
53 50 46 48 44 43 48 43 39 37 38 38 35 34 35 36 33 35 41 43 44 45 45 45 45 45 46 47 49 52 54 56 59 62 65 68 71 74 77 79 82 85 89 93
54 51 52 51 45 45 46 44 44 44 40 42 42 42 42 41 41 37 38 42 46 48 50 51 50 50 50 51 52 53 56 59 61 63 67 70 72 74 75 78 82 85 88 93
54 53 50 50 47 48 47 44 48 46 43 47 46 45 46 46 46 46 42 42 44 45 48 51 53 54 53 55 56 57 59 60 62 63 65 69 73 77 79 81 85 88 91 94
55 55 50 52 50 53 49 47 49 49 50 51 50 50 51 49 50 49 47 45 45 44 44 45 47 50 52 54 54 55 56 58 62 66 69 72 75 78 82 86 87 91 96 100
54 54 53 52 58 53 49 50 52 53 55 54 55 53 53 53 55 54 50 52 47 47 47 45 45 47 50 52 54 57 61 64 68 70 75 77 82 84 86 87 90 97 101 102
Wind_Direction
322 322 330 338 339 343 339 338 307 314 304 253 227 219 219 223 207 201 167 173 181 205 211 208 221 217 234 229 220 223 234 237 235 238 240 245 249 253 253 258 263 272 276 278
317 321 324 334 337 340 338 331 308 292 298 283 234 222 226 220 213 196 192 189 207 221 223 225 223 219 243 243 236 239 243 247 250 252 249 243 257 259 259 261 268 277 281 283
313 316 321 332 333 341 342 323 317 291 274 282 280 271 238 236 234 208 197 199 214 236 235 228 222 228 237 252 243 248 246 255 257 257 260 261 261 266 272 275 278 278 279 280
309 309 318 325 326 341 343 331 315 305 271 271 265 270 262 236 239 224 215 219 227 233 228 226 226 234 244 252 256 253 251 252 254 259 261 263 267 268 270 269 274 274 278 284
303 302 312 315 320 337 337 346 315 300 275 268 263 262 263 254 250 229 232 230 240 240 236 229 242 252 257 259 259 258 260 260 263 263 264 266 266 267 271 277 280 280 281 281
295 292 304 309 313 330 338 343 319 297 282 265 259 248 255 253 248 245 238 244 244 250 251 258 257 255 259 262 262 262 264 264 263 264 266 268 272 275 277 280 280 279 279 281
287 284 297 304 305 325 331 332 336 295 285 274 261 248 246 243 240 243 242 241 248 246 254 251 251 258 263 262 259 257 257 259 263 266 268 270 276 279 279 277 279 284 285 289
280 277 290 294 298 319 326 331 328 309 276 280 275 252 247 245 243 248 248 247 246 248 252 252 257 257 257 267 270 269 269 272 271 270 274 275 276 273 271 279 280 279 283 281
269 273 282 286 291 311 321 327 327 311 280 270 274 256 248 243 243 248 239 237 244 248 258 259 266 266 265 271 275 273 273 275 274 274 273 272 262 268 276 279 276 280 283 285
265 269 273 280 284 301 317 325 324 319 289 265 268 260 259 255 248 244 247 250 255 260 258 263 267 268 268 274 273 269 277 272 270 268 267 261 257 260 271 271 274 281 283 279
258 263 268 273 276 294 310 318 320 322 289 263 255 265 267 268 257 251 250 252 255 259 265 270 275 275 276 279 277 276 273 273 270 266 260 255 257 260 263 271 271 273 275 281
253 260 265 270 275 289 305 314 318 320 303 275 261 259 266 269 264 256 254 253 256 261 266 271 272 276 279 281 283 276 268 267 261 259 256 259 263 264 259 265 271 274 280 282
249 253 264 265 272 285 301 308 315 314 312 275 268 256 261 265 267 262 261 262 260 259 262 268 271 274 275 279 278 273 267 261 255 256 257 261 267 268 268 268 271 276 280 284
248 250 256 266 273 281 293 303 312 312 311 298 270 269 269 267 267 264 262 261 264 265 266 266 267 271 273 272 271 267 264 261 261 262 262 263 263 268 272 276 278 279 282 285
244 249 256 265 270 277 288 297 314 311 309 307 285 276 271 272 268 266 264 266 267 268 266 265 265 262 261 265 268 267 261 258 258 262 265 266 269 274 277 278 281 285 288 294
240 246 254 257 264 277 279 298 312 315 307 308 296 277 275 277 272 267 264 262 267 267 262 263 265 259 256 264 267 268 265 260 262 265 269 272 275 277 280 284 286 289 295 298
244 242 251 255 268 275 276 295 307 316 306 314 293 278 278 277 274 268 266 265 266 268 266 270 272 271 267 263 269 270 267 264 265 268 272 275 278 280 283 286 291 295 297 297
235 243 250 258 267 271 280 288 300 304 309 310 319 299 287 280 274 272 270 266 265 266 268 267 270 274 276 277 277 276 272 270 269 270 272 275 279 284 288 291 295 295 295 297
233 239 248 256 262 271 275 286 296 299 307 317 314 297 274 272 273 269 268 269 267 264 264 269 274 276 277 279 282 283 281 278 278 279 281 284 286 288 292 294 294 295 298 299
229 235 245 255 260 265 276 284 290 301 298 315 303 304 292 279 276 270 264 266 268 270 272 278 281 281 282 281 280 280 281 281 281 282 284 286 288 291 291 292 295 297 298 300
230 236 242 250 253 264 270 279 290 294 297 306 307 305 306 293 279 271 269 270 273 277 279 279 280 282 282 284 285 284 282 282 282 284 286 288 288 290 293 295 298 299 298 299
230 235 243 247 256 256 265 281 286 288 293 301 304 308 308 307 295 281 274 270 272 275 277 278 280 282 284 284 284 284 285 286 287 288 290 292 295 297 298 298 299 302 304 304
232 237 241 247 251 261 269 277 284 287 290 297 300 305 308 305 306 290 281 275 273 274 276 278 279 280 281 283 284 285 288 290 293 294 295 296 298 298 299 301 303 304 303 303
230 237 243 247 255 261 267 273 280 287 290 290 296 301 303 304 303 298 286 286 280 278 278 278 278 279 280 281 284 287 290 293 295 297 297 297 297 299 302 304 304 304 305 306
230 238 242 251 255 258 262 271 277 279 281 289 294 297 299 303 301 299 290 286 283 281 282 282 284 286 287 289 291 293 294 294 296 298 300 302 301 301 302 305 304 306 307 307
232 239 245 248 253 260 263 269 271 274 280 287 291 294 298 301 301 293 285 283 287 287 284 286 289 290 290 291 292 293 295 297 300 303 304 304 305 305 305 304 305 307 307 305